N0308 EHAM-EKCH

Flight info

Callsign N0308
Flight time 0h 59m
Altitude 35000
Route ANDIK N873 JUIST DCT DOSUR P729 TUDLO
Aircraft C700/M-SBDGHM1RWXY/LB2

Departure

Time 2026-05-06 11:16
Airport Amsterdam Airport Schiphol (EHAM)

Arrival

Time 2026-05-06 12:15
Airport Copenhagen Kastrup Airport (EKCH)
Time Latitude Longitude Altitude Speed Heading
2026-05-06 10:40 52.31157 4.80388 -10 ft 0 kts 311°
2026-05-06 10:59 52.31155 4.80391 -10 ft 3 kts 311°
2026-05-06 10:59 52.31136 4.80419 -10 ft 4 kts 334°
2026-05-06 10:59 52.31112 4.80430 -10 ft 2 kts 356°
2026-05-06 10:59 52.31107 4.80431 -10 ft 0 kts 356°
2026-05-06 11:05 52.31108 4.80431 -10 ft 2 kts 356°
2026-05-06 11:05 52.31143 4.80448 -10 ft 7 kts 35°
2026-05-06 11:05 52.31170 4.80489 -9 ft 6 kts 42°
2026-05-06 11:05 52.31194 4.80525 -9 ft 0 kts 42°
2026-05-06 11:06 52.31197 4.80528 -10 ft 2 kts 41°
2026-05-06 11:06 52.31214 4.80550 -10 ft 6 kts 34°
2026-05-06 11:06 52.31228 4.80557 -10 ft 0 kts
2026-05-06 11:06 52.31233 4.80556 -10 ft 1 kts 353°
2026-05-06 11:07 52.31246 4.80534 -11 ft 0 kts 288°
2026-05-06 11:08 52.31248 4.80513 -10 ft 7 kts 277°
2026-05-06 11:08 52.31239 4.80420 -10 ft 10 kts 240°
2026-05-06 11:08 52.31181 4.80332 -10 ft 14 kts 220°
2026-05-06 11:08 52.31100 4.80219 -10 ft 16 kts 220°
2026-05-06 11:09 52.31007 4.80080 -13 ft 21 kts 222°
2026-05-06 11:09 52.30892 4.79916 -13 ft 23 kts 222°
2026-05-06 11:09 52.30776 4.79752 -12 ft 19 kts 219°
2026-05-06 11:09 52.30673 4.79604 -10 ft 19 kts 220°
2026-05-06 11:10 52.30595 4.79493 -8 ft 15 kts 223°
2026-05-06 11:10 52.30504 4.79363 -11 ft 20 kts 221°
2026-05-06 11:10 52.30400 4.79213 -12 ft 22 kts 221°
2026-05-06 11:10 52.30306 4.79079 -13 ft 16 kts 221°
2026-05-06 11:11 52.30212 4.78944 -13 ft 20 kts 221°
2026-05-06 11:11 52.30123 4.78817 -10 ft 13 kts 221°
2026-05-06 11:11 52.30057 4.78720 -9 ft 10 kts 230°
2026-05-06 11:11 52.30052 4.78610 -9 ft 11 kts 300°
2026-05-06 11:12 52.30110 4.78502 -10 ft 14 kts 321°
2026-05-06 11:12 52.30148 4.78509 -11 ft 0 kts 41°
2026-05-06 11:15 52.30148 4.78510 -11 ft 1 kts 41°
2026-05-06 11:16 52.30417 4.78884 -15 ft 102 kts 40°
2026-05-06 11:16 52.31123 4.79911 452 ft 154 kts 40°
2026-05-06 11:16 52.31988 4.81137 1608 ft 175 kts 40°
2026-05-06 11:16 52.32871 4.82538 2918 ft 181 kts 51°
2026-05-06 11:17 52.33496 4.84371 4293 ft 191 kts 66°
2026-05-06 11:17 52.33772 4.86537 5649 ft 205 kts 82°
2026-05-06 11:17 52.33769 4.89062 6241 ft 227 kts 89°
2026-05-06 11:17 52.33795 4.91480 7965 ft 205 kts 79°
2026-05-06 11:18 52.34209 4.93793 9243 ft 218 kts 63°
2026-05-06 11:18 52.35022 4.95915 10574 ft 223 kts 52°
2026-05-06 11:18 52.35945 4.98014 11848 ft 232 kts 53°
2026-05-06 11:18 52.36904 5.00232 12857 ft 254 kts 52°
2026-05-06 11:19 52.37969 5.02673 13409 ft 259 kts 51°
2026-05-06 11:19 52.38972 5.04981 14962 ft 247 kts 53°
2026-05-06 11:19 52.39986 5.07303 16068 ft 253 kts 54°
2026-05-06 11:19 52.41013 5.09663 17222 ft 256 kts 54°
2026-05-06 11:20 52.42161 5.11918 18257 ft 261 kts 41°
2026-05-06 11:20 52.43690 5.13555 19083 ft 266 kts 24°
2026-05-06 11:20 52.45473 5.14480 19805 ft 273 kts 14°
2026-05-06 11:20 52.47333 5.15277 20453 ft 282 kts 14°
2026-05-06 11:21 52.49237 5.16120 21208 ft 285 kts 14°
2026-05-06 11:21 52.51132 5.16957 21962 ft 289 kts 14°
2026-05-06 11:21 52.53098 5.17821 22646 ft 295 kts 14°
2026-05-06 11:21 52.55100 5.18700 23427 ft 299 kts 14°
2026-05-06 11:22 52.57117 5.19591 24114 ft 301 kts 14°
2026-05-06 11:22 52.59155 5.20493 24725 ft 306 kts 14°
2026-05-06 11:22 52.61217 5.21404 25421 ft 307 kts 14°
2026-05-06 11:22 52.63284 5.22318 26118 ft 308 kts 14°
2026-05-06 11:23 52.65372 5.23244 26709 ft 314 kts 13°
2026-05-06 11:23 52.67496 5.24184 27300 ft 317 kts 14°
2026-05-06 11:23 52.69624 5.25130 28004 ft 318 kts 14°
2026-05-06 11:23 52.71770 5.26137 28502 ft 324 kts 19°
2026-05-06 11:24 52.73768 5.27862 29162 ft 325 kts 34°
2026-05-06 11:24 52.75475 5.30308 29779 ft 327 kts 49°
2026-05-06 11:24 52.76899 5.33285 30196 ft 332 kts 53°
2026-05-06 11:24 52.78313 5.36288 30755 ft 332 kts 53°
2026-05-06 11:25 52.79750 5.39307 31158 ft 337 kts 53°
2026-05-06 11:25 52.81195 5.42371 31623 ft 338 kts 53°
2026-05-06 11:25 52.82634 5.45442 32081 ft 339 kts 54°
2026-05-06 11:25 52.84091 5.48546 32434 ft 344 kts 54°
2026-05-06 11:26 52.85557 5.51659 32953 ft 342 kts 53°
2026-05-06 11:26 52.87030 5.54798 33227 ft 348 kts 53°
2026-05-06 11:26 52.88515 5.57977 33676 ft 348 kts 54°
2026-05-06 11:26 52.89976 5.61104 34008 ft 350 kts 54°
2026-05-06 11:27 52.91500 5.64359 34245 ft 354 kts 54°
2026-05-06 11:27 52.93009 5.67591 34577 ft 355 kts 53°
2026-05-06 11:27 52.94531 5.70860 34781 ft 361 kts 54°
2026-05-06 11:27 52.96073 5.74178 34902 ft 367 kts 54°
2026-05-06 11:28 52.97642 5.77551 34905 ft 370 kts 54°
2026-05-06 11:28 53.00750 5.84247 34903 ft 361 kts 54°
2026-05-06 11:29 53.03778 5.90798 34897 ft 358 kts 53°
2026-05-06 11:29 53.06814 5.97379 34905 ft 360 kts 54°
2026-05-06 11:30 53.09871 6.04020 34904 ft 362 kts 54°
2026-05-06 11:30 53.12929 6.10685 34912 ft 364 kts 54°
2026-05-06 11:31 53.16004 6.17404 34903 ft 365 kts 54°
2026-05-06 11:31 53.19077 6.24138 34906 ft 365 kts 54°
2026-05-06 11:32 53.22141 6.30868 34906 ft 364 kts 54°
2026-05-06 11:32 53.25204 6.37617 34898 ft 364 kts 54°
2026-05-06 11:33 53.28265 6.44378 34904 ft 365 kts 54°
2026-05-06 11:33 53.31321 6.51145 34902 ft 364 kts 54°
2026-05-06 11:34 53.34354 6.57867 34897 ft 364 kts 53°
2026-05-06 11:34 53.38010 6.63766 34901 ft 366 kts 43°
2026-05-06 11:35 53.41744 6.69553 34903 ft 366 kts 44°
2026-05-06 11:35 53.45497 6.75316 34898 ft 366 kts 43°
2026-05-06 11:36 53.49241 6.81107 34897 ft 366 kts 43°
2026-05-06 11:36 53.52355 6.85925 34893 ft 366 kts 43°
2026-05-06 11:37 53.56091 6.91721 34901 ft 366 kts 43°
2026-05-06 11:37 53.59697 6.97765 34902 ft 366 kts 45°
2026-05-06 11:38 53.63323 7.03818 34905 ft 367 kts 45°
2026-05-06 11:38 53.66933 7.09915 34908 ft 367 kts 45°
2026-05-06 11:39 53.70549 7.16010 34906 ft 368 kts 45°
2026-05-06 11:39 53.74162 7.22129 34913 ft 368 kts 45°
2026-05-06 11:40 53.77781 7.28270 34923 ft 369 kts 45°
2026-05-06 11:40 53.81408 7.34442 34904 ft 372 kts 46°
2026-05-06 11:40 53.83275 7.37628 34912 ft 389 kts 46°
2026-05-06 11:41 53.85225 7.40957 34914 ft 407 kts 46°
2026-05-06 11:41 53.87264 7.44440 34913 ft 425 kts 46°
2026-05-06 11:41 53.89387 7.48073 34914 ft 441 kts 46°
2026-05-06 11:41 53.91583 7.51839 34920 ft 457 kts 46°
2026-05-06 11:42 53.93821 7.55684 34919 ft 471 kts 46°
2026-05-06 11:42 53.96157 7.59702 34915 ft 485 kts 46°
2026-05-06 11:42 53.98558 7.63840 34910 ft 498 kts 46°
2026-05-06 11:43 54.03503 7.72382 34913 ft 511 kts 46°
2026-05-06 11:43 54.08455 7.80971 34912 ft 506 kts 46°
2026-05-06 11:44 54.15802 7.93770 34912 ft 504 kts 46°
2026-05-06 11:44 54.20706 8.02350 34901 ft 506 kts 47°
2026-05-06 11:45 54.25620 8.10983 34905 ft 508 kts 47°
2026-05-06 11:45 54.30562 8.19692 34910 ft 511 kts 47°
2026-05-06 11:46 54.35497 8.28424 34910 ft 509 kts 47°
2026-05-06 11:46 54.40407 8.37142 34908 ft 507 kts 47°
2026-05-06 11:47 54.45284 8.45834 34904 ft 506 kts 47°
2026-05-06 11:47 54.50197 8.54623 34916 ft 514 kts 47°
2026-05-06 11:48 54.55123 8.63464 34900 ft 513 kts 47°
2026-05-06 11:48 54.60023 8.72296 34896 ft 507 kts 47°
2026-05-06 11:49 54.64906 8.81130 34898 ft 510 kts 47°
2026-05-06 11:49 54.69816 8.90046 34915 ft 513 kts 47°
2026-05-06 11:50 54.74758 8.99050 34915 ft 517 kts 47°
2026-05-06 11:50 54.79691 9.08074 34915 ft 514 kts 47°
2026-05-06 11:51 54.84592 9.17074 34907 ft 512 kts 47°
2026-05-06 11:51 54.89306 9.26203 34909 ft 512 kts 49°
2026-05-06 11:52 54.94044 9.35507 34913 ft 515 kts 49°
2026-05-06 11:52 54.98785 9.44908 34926 ft 517 kts 49°
2026-05-06 11:53 55.03528 9.54321 34931 ft 515 kts 50°
2026-05-06 11:53 55.08222 9.63748 34711 ft 515 kts 52°
2026-05-06 11:54 55.10197 9.68900 34054 ft 506 kts 62°
2026-05-06 11:54 55.11683 9.74376 33346 ft 491 kts 71°
2026-05-06 11:54 55.12723 9.79878 32726 ft 477 kts 76°
2026-05-06 11:54 55.13698 9.85378 32102 ft 472 kts 75°
2026-05-06 11:55 55.14682 9.90891 31474 ft 479 kts 75°
2026-05-06 11:55 55.15683 9.96501 30837 ft 488 kts 75°
2026-05-06 11:55 55.16694 10.02195 30190 ft 491 kts 75°
2026-05-06 11:55 55.17705 10.07916 29488 ft 490 kts 75°
2026-05-06 11:56 55.18703 10.13572 28837 ft 483 kts 75°
2026-05-06 11:56 55.19683 10.19145 28206 ft 476 kts 75°
2026-05-06 11:56 55.20647 10.24654 27582 ft 470 kts 75°
2026-05-06 11:56 55.21597 10.30100 26966 ft 466 kts 75°
2026-05-06 11:57 55.22539 10.35509 26375 ft 463 kts 75°
2026-05-06 11:57 55.23473 10.40889 25766 ft 460 kts 75°
2026-05-06 11:57 55.24401 10.46252 25158 ft 458 kts 75°
2026-05-06 11:57 55.25321 10.51584 24556 ft 455 kts 75°
2026-05-06 11:58 55.26218 10.56799 23968 ft 451 kts 75°
2026-05-06 11:58 55.27116 10.62036 23350 ft 447 kts 74°
2026-05-06 11:58 55.28003 10.67223 22736 ft 441 kts 74°
2026-05-06 11:58 55.28883 10.72337 22157 ft 435 kts 74°
2026-05-06 11:59 55.29752 10.77380 21585 ft 430 kts 74°
2026-05-06 11:59 55.30607 10.82378 21036 ft 425 kts 74°
2026-05-06 11:59 55.31453 10.87351 20462 ft 425 kts 74°
2026-05-06 11:59 55.32296 10.92319 19901 ft 424 kts 74°
2026-05-06 12:00 55.33131 10.97235 19348 ft 420 kts 74°
2026-05-06 12:00 55.33960 11.02173 18792 ft 415 kts 74°
2026-05-06 12:00 55.34759 11.07019 18252 ft 410 kts 74°
2026-05-06 12:00 55.35550 11.11804 17667 ft 405 kts 74°
2026-05-06 12:01 55.36323 11.16452 17136 ft 398 kts 74°
2026-05-06 12:01 55.37101 11.21156 16606 ft 393 kts 74°
2026-05-06 12:01 55.37847 11.25693 16108 ft 391 kts 74°
2026-05-06 12:01 55.38600 11.30284 15592 ft 389 kts 74°
2026-05-06 12:02 55.39340 11.34805 15084 ft 379 kts 74°
2026-05-06 12:02 55.40051 11.39157 14591 ft 360 kts 74°
2026-05-06 12:02 55.40725 11.43287 14131 ft 343 kts 74°
2026-05-06 12:02 55.41232 11.47313 13551 ft 332 kts 84°
2026-05-06 12:03 55.41283 11.51287 13097 ft 318 kts 92°
2026-05-06 12:03 55.41230 11.55104 12690 ft 306 kts 91°
2026-05-06 12:03 55.41295 11.58785 12299 ft 297 kts 87°
2026-05-06 12:03 55.41459 11.62358 11921 ft 288 kts 86°
2026-05-06 12:04 55.41590 11.65834 11547 ft 281 kts 87°
2026-05-06 12:04 55.41679 11.69225 11186 ft 275 kts 88°
2026-05-06 12:04 55.41770 11.72559 10831 ft 271 kts 87°
2026-05-06 12:04 55.41871 11.75803 10481 ft 266 kts 87°
2026-05-06 12:05 55.41970 11.79035 10134 ft 263 kts 87°
2026-05-06 12:05 55.42064 11.82234 9787 ft 261 kts 87°
2026-05-06 12:05 55.42155 11.85411 9433 ft 258 kts 87°
2026-05-06 12:05 55.42246 11.88538 9090 ft 253 kts 87°
2026-05-06 12:06 55.42334 11.91603 8756 ft 249 kts 87°
2026-05-06 12:06 55.42420 11.94621 8430 ft 245 kts 86°
2026-05-06 12:06 55.42504 11.97589 8109 ft 241 kts 87°
2026-05-06 12:06 55.42586 12.00525 7791 ft 239 kts 86°
2026-05-06 12:07 55.42666 12.03432 7477 ft 236 kts 86°
2026-05-06 12:07 55.42745 12.06305 7169 ft 233 kts 86°
2026-05-06 12:07 55.42822 12.09134 6868 ft 230 kts 86°
2026-05-06 12:07 55.42898 12.11931 6562 ft 228 kts 86°
2026-05-06 12:08 55.42972 12.14703 6256 ft 225 kts 86°
2026-05-06 12:08 55.43044 12.17418 6036 ft 219 kts 86°
2026-05-06 12:08 55.43115 12.20115 5766 ft 222 kts 86°
2026-05-06 12:08 55.43186 12.22852 5482 ft 226 kts 86°
2026-05-06 12:09 55.43258 12.25624 5182 ft 226 kts 86°
2026-05-06 12:09 55.43326 12.28310 4882 ft 216 kts 85°
2026-05-06 12:09 55.43392 12.30910 4606 ft 205 kts 86°
2026-05-06 12:09 55.43460 12.33330 4352 ft 197 kts 84°
2026-05-06 12:10 55.43794 12.35630 4098 ft 193 kts 66°
2026-05-06 12:10 55.44501 12.37636 3848 ft 195 kts 51°
2026-05-06 12:10 55.45499 12.39257 3592 ft 196 kts 42°
2026-05-06 12:10 55.46538 12.40835 3323 ft 197 kts 43°
2026-05-06 12:11 55.47547 12.42387 3119 ft 188 kts 43°
2026-05-06 12:11 55.48517 12.43882 2874 ft 182 kts 43°
2026-05-06 12:11 55.49467 12.45329 2628 ft 179 kts 43°
2026-05-06 12:11 55.50396 12.46757 2387 ft 176 kts 44°
2026-05-06 12:12 55.51316 12.48175 2143 ft 174 kts 44°
2026-05-06 12:12 55.52196 12.49531 1928 ft 162 kts 44°
2026-05-06 12:12 55.53016 12.50794 1698 ft 152 kts 44°
2026-05-06 12:12 55.53800 12.52001 1486 ft 148 kts 44°
2026-05-06 12:13 55.54564 12.53178 1293 ft 142 kts 45°
2026-05-06 12:13 55.55277 12.54276 1095 ft 128 kts 45°
2026-05-06 12:13 55.55908 12.55245 915 ft 113 kts 46°
2026-05-06 12:13 55.56483 12.56143 764 ft 109 kts 44°
2026-05-06 12:14 55.57044 12.57025 634 ft 109 kts 44°
2026-05-06 12:14 55.57635 12.57909 486 ft 115 kts 43°
2026-05-06 12:14 55.58220 12.58853 320 ft 111 kts 44°
2026-05-06 12:14 55.58821 12.59715 169 ft 112 kts 41°
2026-05-06 12:15 55.59380 12.60614 30 ft 107 kts 43°
2026-05-06 12:15 55.59894 12.61383 13 ft 78 kts 37°
2026-05-06 12:15 55.60226 12.61897 13 ft 53 kts 42°
2026-05-06 12:15 55.60471 12.62248 15 ft 39 kts 26°
2026-05-06 12:16 55.60609 12.62335 19 ft 0 kts
2026-05-06 12:17 55.60612 12.62336 19 ft 3 kts
2026-05-06 12:17 55.60673 12.62351 19 ft 14 kts
2026-05-06 12:17 55.60773 12.62399 17 ft 14 kts 18°
2026-05-06 12:17 55.60859 12.62509 16 ft 16 kts 39°
2026-05-06 12:18 55.60962 12.62656 13 ft 21 kts 39°
2026-05-06 12:18 55.61078 12.62827 13 ft 23 kts 44°
2026-05-06 12:18 55.61188 12.63014 16 ft 20 kts 41°
2026-05-06 12:18 55.61291 12.63168 18 ft 19 kts 39°
2026-05-06 12:19 55.61402 12.63332 15 ft 23 kts 42°
2026-05-06 12:19 55.61512 12.63513 11 ft 17 kts 39°
2026-05-06 12:19 55.61605 12.63648 13 ft 17 kts 45°
2026-05-06 12:19 55.61700 12.63802 14 ft 19 kts 40°
2026-05-06 12:20 55.61799 12.63960 16 ft 20 kts 42°
2026-05-06 12:20 55.61910 12.64109 16 ft 20 kts 38°
2026-05-06 12:20 55.61943 12.64292 16 ft 17 kts 79°
2026-05-06 12:20 55.61983 12.64498 15 ft 19 kts 51°
2026-05-06 12:21 55.62093 12.64645 15 ft 20 kts 40°
2026-05-06 12:21 55.62072 12.64845 17 ft 19 kts 122°
2026-05-06 12:21 55.61993 12.65063 12 ft 23 kts 122°
2026-05-06 12:21 55.61897 12.65317 10 ft 26 kts 122°
2026-05-06 12:22 55.61799 12.65592 15 ft 26 kts 125°
2026-05-06 12:22 55.61699 12.65862 19 ft 26 kts 121°
2026-05-06 12:22 55.61641 12.66134 17 ft 20 kts 88°
2026-05-06 12:22 55.61708 12.66358 14 ft 22 kts 33°
2026-05-06 12:23 55.61837 12.66459 11 ft 15 kts 55°
2026-05-06 12:23 55.61866 12.66651 11 ft 17 kts 64°
2026-05-06 12:23 55.61940 12.66710 11 ft 0 kts 339°